Location: Fiume Sitzerri
(39.6833°N, 8.5667°E)
Time: 14:56:31
(UTC+00:00)

Daily predictions for brighter satellites

Satellite Brightness Start Highest point End
(mag) Time Altitude Azimuth Time Altitude Azimuth Time Altitude Azimuth
Cosmos 1570 Rocket 4.0 18:47:11 10° NNW 18:52:27 76° ENE 18:57:39 10° SSE
Cosmos 1814 Rocket 4.0 18:57:09 10° NNW 19:02:23 90° WNW 19:07:33 10° SSE
Cosmos 540 Rocket 4.4 18:59:22 10° NNW 19:04:18 49° WSW 19:09:11 10° S
Lacrosse 5 rocket 4.1 19:03:35 10° W 19:05:53 14° WSW 19:08:13 10° SSW
CZ-2C R/B 4.3 19:02:13 10° N 19:07:11 39° WNW 19:12:15 10° SW
Nadezhda 2 Rocket 4.5 19:01:16 10° N 19:07:24 75° E 19:13:29 10° SSE
Cosmos 1553 Rocket 4.1 19:02:20 10° SSE 19:08:16 57° E 19:14:19 10° NNE
USA 186 1.2 19:06:46 10° S 19:09:23 79° W 19:11:51 10° NNW
MOS 1-B Rocket 4.3 19:03:59 10° NNE 19:11:21 66° E 19:17:36 10° S
SJ-6B 2.8 19:08:19 10° SSE 19:12:08 69° ENE 19:16:04 10° N
ASTRO E2 4.4 19:10:10 10° WSW 19:13:06 20° SSW 19:15:59 10° SE
Cosmos 968 Rocket 3.5 19:10:11 10° S 19:15:25 75° ESE 19:20:39 10° NNE
Sich 1 4.2 19:14:02 10° NNE 19:17:41 26° ENE 19:20:44 13° SE
Cosmos 1606 2.6 19:14:05 10° S 19:17:49 71° E 19:21:35 10° NNE
Cosmos 1844 Rocket 2.6 19:12:23 10° SSW 19:17:54 72° ESE 19:23:28 10° NNE
FALCON 9 DEB 2.7 19:15:18 10° NW 19:18:20 79° NE 19:20:42 15° SE
Resurs 01 Rocket 2.8 19:15:30 12° ESE 19:18:54 26° ENE 19:22:37 10° NNE
Cosmos 1943 4.2 19:14:04 10° NW 19:19:25 46° WSW 19:24:47 10° S
FALCON 9 DEB 2.7 19:21:13 10° NW 19:24:14 82° SW 19:26:24 17° SE
Cosmos 1486 Rocket 4.0 19:22:11 10° SSW 19:27:29 77° ESE 19:32:49 10° NNE
CZ-4C R/B 4.4 19:26:09 10° NNW 19:31:47 24° NE 19:38:04 10° E
ERS-2 4.1 19:31:22 10° N 19:34:36 31° WNW 19:37:50 10° SW
FALCON 9 DEB 2.7 19:31:35 10° NW 19:34:38 87° SW 19:36:23 23° SE
Cosmos 1151 Rocket 4.2 19:33:03 17° SE 19:35:06 24° E 19:38:38 10° NE
SL-4 R/B 2.2 19:31:16 10° NW 19:35:40 84° NE 19:38:59 19° SE
SL-08 ROCKET BODY 4.3 19:32:50 10° N 19:38:46 89° E 19:44:35 10° S
OBJECT-B 2.0 19:38:14 10° S 19:41:18 40° W 19:44:23 10° NNW
Cosmos 1844 3.7 19:35:36 10° SSW 19:41:21 90° ESE 19:47:04 10° NNE
ATLAS 5 CENTAUR R/B 3.2 19:37:25 10° NNW 19:42:43 39° NE 19:47:08 17° ESE
Cosmos 2084 3.9 19:45:06 10° S 19:48:49 34° ESE 19:52:37 10° NE
IRS-1A Rocket 4.5 19:43:21 10° S 19:49:04 78° WSW 19:54:57 10° NNW
GPS 2-04 Rocket1 3.8 19:45:56 10° SW 19:49:17 24° SSE 19:49:44 24° SSE
Intercosmos 24 3.6 19:48:24 10° S 19:52:27 83° E 19:56:01 10° N
Cosmos 1833 Rocket 4.4 19:51:00 10° N 19:54:56 19° NE 19:57:45 13° E
Cosmos 1242 Rocket 2.4 19:52:32 18° S 19:55:05 65° E 19:58:37 10° NNE
Meteor 1-26 Rocket 4.3 19:54:23 13° S 19:59:24 55° E 20:04:50 10° NNE
Cosmos 1805 Rocket 3.7 19:57:18 10° NNW 20:01:39 74° W 20:04:55 17° S
SPOT 5 4.5 20:01:56 18° E 20:03:38 21° ENE 20:07:27 10° NNE
ARIANE 5 R/B 3.7 20:06:12 25° E 20:07:15 28° ENE 20:10:56 10° N
Terra 3.7 20:06:40 14° E 20:07:46 15° ENE 20:10:27 10° NNE
FALCON 9 DEB 4.0 20:06:02 10° WNW 20:08:48 31° SW 20:09:21 29° SSW
Cosmos 1633 Rocket 3.4 20:05:08 10° N 20:09:23 46° E 20:10:43 35° SE
DELTA 2 R/B (1) 3.5 20:04:04 10° W 20:09:36 71° SSW 20:12:22 30° ESE
Cosmos 1386 Rocket 4.5 20:03:36 10° N 20:09:38 79° W 20:14:46 15° S
CZ-2C R/B 3.6 20:05:50 10° NNE 20:10:18 66° ESE 20:13:09 22° S
ERS-1 Rocket 4.2 20:10:41 22° E 20:12:07 25° ENE 20:16:10 10° NNE
IGS 5A 3.4 20:11:11 31° SSE 20:13:08 90° NNE 20:17:18 10° NNW
USA 290 2.1 20:11:06 10° NNW 20:14:21 89° ESE 20:14:51 60° SSE
Cosmos 883 Rocket 4.5 20:09:54 10° S 20:16:09 85° E 20:22:31 10° N
Cosmos 1328 Rocket 3.6 20:14:51 36° SSE 20:16:25 56° E 20:20:45 10° NNE
Cosmos 1437 4.0 20:17:59 25° NE 20:17:59 25° NE 20:19:30 10° NNE
Cosmos 1933 4.0 20:13:30 10° SSW 20:17:29 55° W 20:21:27 10° N
Cosmos 1503 Rocket 4.3 20:13:25 10° SSW 20:18:33 65° WNW 20:23:43 10° NNE
Cosmos 1745 Rocket 4.3 20:13:04 10° NNW 20:19:11 65° W 20:24:25 14° S
Cosmos 1470 Rocket 4.4 20:15:28 10° N 20:19:34 34° ENE 20:20:10 33° E
Cosmos 1709 Rocket 3.9 20:15:50 10° N 20:21:58 76° E 20:25:15 29° SSE
Cosmos 1777 Rocket 4.1 20:20:39 32° SSE 20:22:43 52° ESE 20:27:46 10° NNE
X-37B 1.7 20:20:34 10° WNW 20:23:36 39° NNE 20:24:16 34° NE
CARTOSAT-1 4.2 20:23:35 36° E 20:24:14 38° ENE 20:28:14 10° N
Cosmos 1500 3.6 20:26:43 10° N 20:30:08 44° ENE 20:30:08 44° ENE
Cosmos 2082 Rocket 3.9 20:26:30 10° N 20:30:21 18° NE 20:32:17 16° ENE
COSMOS 2406 4.1 20:25:47 10° N 20:30:56 34° ENE 20:32:38 29° E
Meteor 2-6 Rocket 4.4 20:31:36 40° SE 20:32:39 45° E 20:37:51 10° NNE
Cosmos 1666 Rocket 3.7 20:31:32 10° NNW 20:35:55 70° W 20:37:20 41° SSW
Cosmos 2315 Rocket 4.1 20:31:36 16° S 20:36:49 81° W 20:43:15 10° N
Landsat 7 4.2 20:35:42 30° SSW 20:37:52 59° W 20:42:34 10° NNW
Cosmos 1782 3.2 20:36:20 30° SSW 20:38:05 59° W 20:42:02 10° N
Cosmos 1271 Rocket 4.2 20:46:42 26° NE 20:46:42 26° NE 20:48:59 10° NNE
SPOT 1/Viking Rocket 3.6 20:45:30 41° S 20:47:20 74° WSW 20:52:33 10° NNW
SJ 16-02 2.0 20:52:11 41° ENE 20:52:11 41° ENE 20:55:31 10° NNE
Cosmos 2278 Rocket 2.1 20:50:06 42° S 20:52:01 72° ESE 20:57:40 10° NNE
Resurs 01 Rocket 3.4 20:53:04 18° SW 20:55:18 27° W 20:59:05 10° NW
Cosmos 2228 Rocket 4.2 21:01:58 32° NE 21:01:58 32° NE 21:04:53 10° NNE
H-2A R/B 4.2 21:01:39 10° NNE 21:04:39 42° NE 21:04:39 42° NE
Cosmos 1943 Rocket 4.3 21:11:10 12° ENE 21:11:10 12° ENE 21:11:49 10° ENE
ATLAS 2AS CENTAUR R/B 4.2 21:07:18 10° NNW 21:13:32 28° NE 21:16:52 20° E
SL-4 R/B 4.4 21:12:01 10° W 21:14:33 17° WSW 21:14:33 17° WSW
Cosmos 1812 3.7 21:16:50 44° WNW 21:16:50 44° WNW 21:20:21 10° N
Meteor 1-10 Rocket 4.1 21:17:12 68° S 21:17:57 89° ESE 21:23:37 10° N
Iridium 4 Rocket 3.7 21:18:17 60° SSW 21:19:21 81° W 21:25:16 10° N
CZ-4C R/B 3.0 21:13:50 10° NNW 21:21:21 83° ENE 21:23:48 51° SE
USA 308 4.5 21:21:51 10° NNW 21:25:36 28° NNE 21:25:49 28° NE
ATLAS 5 CENTAUR R/B 3.2 21:21:54 10° NW 21:27:29 41° WSW 21:28:41 38° SW
Cosmos 1538 Rocket 3.9 21:23:27 10° NNW 21:28:50 86° WSW 21:28:51 86° WSW
Meteor 1-5 Rocket 4.3 21:25:00 10° NNW 21:30:17 59° W 21:30:46 57° WSW
Milstar 3 3.9 21:21:22 10° WSW 21:32:11 40° S 21:32:11 40° S
Cosmos 158 Rocket 4.2 21:28:23 10° NNW 21:32:38 56° NE 21:32:38 56° NE
Cosmos 1666 4.3 21:32:35 10° NNW 21:34:56 33° NW 21:34:56 33° NW
Cosmos 1833 Rocket 2.7 21:33:46 10° NNW 21:39:22 67° WSW 21:39:27 67° WSW
SPOT 5 3.6 21:41:10 46° WSW 21:41:17 46° W 21:46:17 10° NNW
ARIANE 5 R/B 4.3 21:43:45 24° W 21:43:45 24° W 21:47:12 10° NW
Terra 2.3 21:45:33 54° WNW 21:45:33 54° WNW 21:49:43 10° NNW
Cosmos 2327 Rocket 4.4 21:39:50 10° N 21:46:17 83° E 21:46:40 78° SE
Cosmos 1680 Rocket 4.3 21:41:11 10° N 21:45:47 43° NE 21:45:47 43° NE
ERS-1 Rocket 4.0 21:50:40 36° W 21:50:41 36° W 21:55:20 10° NNW
Cosmos 2154 Rocket 3.9 21:53:35 10° N 21:59:55 75° W 22:00:11 73° WSW
Meteor 1-27 Rocket 4.3 22:12:02 50° W 22:12:24 51° WNW 22:18:09 10° N
Cosmos 2082 Rocket 2.5 22:09:22 10° NNW 22:14:08 59° WNW 22:14:08 59° WNW
COSMOS 2406 4.4 22:10:10 10° NW 22:14:42 32° W 22:14:42 32° W
Cosmos 962 Rocket 4.4 22:11:20 10° N 22:17:03 78° N 22:17:03 78° N
Cosmos 44 4.5 22:13:46 10° NNW 22:18:21 41° NE 22:18:21 41° NE
Cosmos 1898 Rocket 4.1 22:20:55 55° N 22:20:55 55° N 22:25:10 10° NNE
SJ 16-02 3.9 22:29:06 14° WNW 22:30:05 15° WNW 22:32:45 10° NNW
Cosmos 2181 Rocket 4.1 22:34:44 71° NNE 22:34:44 71° NNE 22:40:11 10° N
Cosmos 1238 Rocket 4.1 22:34:43 10° N 22:39:54 62° NNW 22:39:54 62° NNW
Cosmos 2369 Rocket 3.2 22:48:04 37° NE 22:48:04 37° NE 22:51:35 10° NNE
Cosmos 2366 rocket 4.1 22:44:12 10° N 22:49:36 70° N 22:49:36 70° N
NOSS 3-4 (A) 4.2 22:44:28 10° NW 22:50:58 52° WSW 22:50:58 52° WSW
NOSS 3-4 (C) 4.2 22:44:35 10° NW 22:51:05 52° WSW 22:51:05 52° WSW
Cosmos 1943 Rocket 2.8 22:52:38 54° NNW 22:52:38 54° NNW 22:57:12 10° NNE
Cosmos 2341 Rocket 4.4 22:45:58 10° NNW 22:51:45 56° WNW 22:51:45 56° WNW
SeaSat 1 4.2 22:52:58 10° NE 22:55:08 24° NE 22:55:08 24° NE
USA 215 4.1 22:57:12 29° E 22:59:59 44° NNE 23:06:06 10° NW
ATLAS 2AS CENTAUR R/B 2.9 22:57:57 10° NW 23:04:17 64° WNW 23:04:17 64° WNW
Meteor 2-4 Rocket 4.3 23:09:23 56° N 23:09:23 56° N 23:13:49 10° N
CZ-4C R/B 4.5 23:03:41 10° WNW 23:08:59 23° WSW 23:08:59 23° WSW
Cosmos 2218 Rocket 4.3 23:03:39 10° NNW 23:09:04 59° WNW 23:09:04 59° WNW
Nadezhda 3 Rocket 4.2 23:28:06 66° NNE 23:28:06 66° NNE 23:33:27 10° N
ATLAS CENTAUR R/B 4.3 23:34:54 10° NE 23:34:54 10° NE 23:34:57 10° NE
Cosmos 1607 4.2 23:36:38 69° NNE 23:36:38 69° NNE 23:42:19 10° NNE
Thor Agena Rocket 4.4 23:32:50 10° N 23:36:39 47° NNW 23:36:39 47° NNW
Resurs 1-4 Rocket 4.1 23:50:26 10° NE 23:53:19 18° E 23:53:19 18° E
